DateTime,F1_A11,F1_S11,BsB_S11,BsG_S11,BsR_S11,BbsB_S11,BbsG_S11,BbsR_S11,BaB_A11,BaG_A11,BaR_A11,T_S11,U_S11,P_S11,T1_A11
2016-03-15T00:00:00Z,0000380,21000600,,,,,,,,,,26.0,00.0,0649.1,34.4
2016-03-15T00:01:00Z,0000380,21000600,,,,,,,,,,26.0,00.0,0649.1,34.4
2016-03-15T00:02:00Z,0000380,21000600,,,,,,,,,,26.0,00.0,0649.1,34.4
2016-03-15T00:03:00Z,0000380,61000600,,,,,,,,,,26.1,00.0,0649.1,34.4
2016-03-15T00:04:00Z,0000380,41000600,0005.86,0005.25,0003.07,0001.23,0000.21,0000.31,0000.15,0000.22,0000.45,26.2,00.0,0649.9,34.4
2016-03-15T00:05:00Z,0000380,01000600,0006.41,0004.24,0003.51,0001.35,-000.06,0000.36,0000.29,0000.07,-000.10,26.2,00.0,0650.0,34.4
2016-03-15T00:06:00Z,0000380,01000600,0005.46,0004.69,0002.98,0000.93,0000.71,0000.42,0000.04,0000.27,-000.10,26.2,00.0,0650.0,34.4
2016-03-15T00:07:00Z,0000380,01000600,0006.31,0005.35,0003.45,0000.57,0000.70,0000.11,0000.14,-000.03,0000.53,26.2,00.0,0649.9,34.4
2016-03-15T00:08:00Z,0000380,01000600,0005.78,0004.42,0002.96,0001.33,0000.65,0000.20,0000.06,0000.09,-000.30,26.2,00.0,0649.9,34.4
2016-03-15T00:09:00Z,0000380,01000600,0004.88,0004.16,0003.71,-000.08,0000.39,0000.36,0000.18,-000.06,0000.43,26.2,00.0,0650.0,34.4
2016-03-15T00:10:00Z,0000380,01000600,0006.85,0005.24,0003.23,0000.80,0000.45,0000.16,0000.34,0000.26,0000.00,26.3,00.0,0650.0,34.4
2016-03-15T00:11:00Z,0000380,01000600,0005.39,0005.23,0003.28,0001.27,0000.16,0000.34,0000.01,0000.09,-000.25,26.3,00.0,0650.0,34.4
2016-03-15T00:12:00Z,0000380,01000600,0005.24,0005.09,0003.26,0000.33,0000.47,0000.21,-000.18,0000.11,0000.29,26.3,00.0,0650.0,34.4
2016-03-15T00:13:00Z,0000380,01000600,0007.03,0004.14,0003.68,0000.24,0000.65,0000.28,0000.18,0000.07,-000.01,26.3,00.0,0650.0,34.4
2016-03-15T00:14:00Z,0000380,01000600,0006.40,0004.86,0003.43,0001.06,0000.65,0000.10,0000.20,0000.28,0000.28,26.3,00.0,0650.0,34.4
2016-03-15T00:15:00Z,0000380,01000600,0005.57,0004.71,0003.23,-000.11,-000.06,0000.50,0000.12,-000.06,0000.02,26.3,00.0,0650.0,34.4
2016-03-15T00:16:00Z,0000380,01000600,0004.80,0004.51,0003.17,0000.88,0000.26,0000.33,-000.07,0000.22,0000.41,26.3,00.0,0650.0,34.4
2016-03-15T00:17:00Z,0000380,01000600,0005.78,0004.79,0003.39,0000.96,0000.37,0000.21,0000.32,0000.06,-000.25,26.3,00.0,0650.1,34.4
2016-03-15T00:18:00Z,0000380,01000600,0004.86,0004.42,0003.16,0000.16,0000.31,0000.36,0000.22,-000.01,0000.18,26.3,00.0,0650.1,34.4
2016-03-15T00:19:00Z,0000380,01000600,0005.95,0004.68,0003.30,0001.14,0000.39,0000.37,-000.09,0000.11,-000.55,26.3,00.0,0650.1,34.4
2016-03-15T00:20:00Z,0000380,01000600,0005.05,0004.86,0003.26,0000.34,0000.57,0000.42,0000.23,0000.27,0000.59,26.3,00.0,0650.1,34.4
2016-03-15T00:21:00Z,0000380,01000600,0005.32,0004.30,0003.50,0000.39,0000.53,0000.26,-000.09,-000.23,0000.23,26.3,00.0,0650.1,34.4
2016-03-15T00:22:00Z,0000380,01000600,0006.00,0004.63,0003.35,-000.11,0000.84,0000.57,0000.35,0000.39,0000.17,26.3,00.0,0650.1,34.4
2016-03-15T00:23:00Z,0000380,01000600,0004.86,0004.55,0003.18,0000.80,0000.11,0000.21,-000.24,0000.14,0000.12,26.3,00.0,0650.1,34.4
2016-03-15T00:24:00Z,0000380,01000600,0005.33,0004.60,0003.35,0000.37,0000.44,0000.41,0000.28,-000.24,-000.18,26.3,00.0,0650.1,34.4
2016-03-15T00:25:00Z,0000380,01000600,0005.91,0004.33,0003.38,0000.73,0000.37,0000.54,0000.14,0000.35,-000.01,26.3,00.0,0650.1,34.4
2016-03-15T00:26:00Z,0000380,01000600,0005.19,0003.59,0004.01,0001.46,0000.60,0000.13,-000.16,-000.07,0000.22,26.3,00.0,0650.1,34.4
2016-03-15T00:27:00Z,0000380,01000600,0005.71,0005.07,0003.48,0000.62,0000.89,0000.29,0000.20,0000.09,-000.07,26.3,00.0,0650.1,34.4
2016-03-15T00:28:00Z,0000380,01000600,0004.64,0004.72,0003.16,0000.24,0000.89,0000.16,0000.41,0000.30,0000.44,26.3,00.0,0650.0,34.4
2016-03-15T00:29:00Z,0000380,01000600,0005.37,0005.62,0002.78,0000.55,0000.81,0000.63,0000.07,0000.14,-000.04,26.3,00.0,0650.0,34.4
2016-03-15T00:30:00Z,0000380,01000600,0005.26,0004.90,0003.66,0000.83,0000.94,0000.36,0000.13,-000.04,-000.03,26.3,00.0,0650.0,34.4
2016-03-15T00:31:00Z,0000380,01000600,0005.08,0005.62,0003.48,0000.16,0000.81,0000.47,-000.02,0000.19,0000.02,26.3,00.0,0650.0,34.4
2016-03-15T00:32:00Z,0000380,01000600,0006.14,0004.87,0003.76,0000.57,0000.60,0000.18,0000.27,-000.02,-000.04,26.3,00.0,0650.0,34.4
2016-03-15T00:33:00Z,0000380,01000600,0006.01,0004.95,0003.37,0001.35,0000.78,0000.08,-000.08,0000.06,0000.13,26.3,00.0,0650.0,34.4
2016-03-15T00:34:00Z,0000380,01000600,0006.00,0004.73,0003.24,0000.55,0000.83,0000.20,0000.30,0000.20,0000.10,26.3,00.0,0650.1,34.4
2016-03-15T00:35:00Z,0000380,01000600,0006.31,0004.92,0003.38,0000.42,0000.40,0000.60,0000.05,0000.05,0000.05,26.3,00.0,0650.1,34.4
2016-03-15T00:36:00Z,0000380,01000600,0005.19,0004.55,0003.78,0000.76,0000.83,0000.31,0000.07,0000.13,-000.08,26.3,00.0,0650.1,34.4
2016-03-15T00:37:00Z,0000380,01000600,0006.34,0005.05,0003.26,0000.26,0000.63,0000.11,0000.10,-000.03,0000.37,26.2,00.0,0650.1,34.4
2016-03-15T00:38:00Z,0000380,01000600,0007.16,0004.57,0003.26,-000.02,0000.45,0000.31,0000.19,0000.08,0000.03,26.2,00.0,0650.1,34.4
2016-03-15T00:39:00Z,0000380,01000600,0006.76,0005.02,0003.96,-000.05,0000.82,0000.44,-000.03,0000.27,0000.33,26.2,00.0,0650.1,34.4
2016-03-15T00:40:00Z,0000380,01000600,0006.80,0004.40,0003.59,0000.45,0000.34,0000.11,0000.37,-000.04,0000.12,26.2,00.0,0650.1,34.4
2016-03-15T00:41:00Z,0000380,01000600,0006.82,0004.99,0003.65,0000.83,-000.15,0000.52,-000.02,0000.23,0000.08,26.2,00.0,0650.1,34.4
2016-03-15T00:42:00Z,0000380,01000600,0005.46,0005.11,0003.72,0000.50,0000.57,0000.26,0000.14,0000.22,-000.13,26.2,00.0,0650.2,34.4
2016-03-15T00:43:00Z,0000380,01000600,0006.64,0004.73,0002.70,0000.81,0000.44,0000.08,0000.07,0000.11,0000.14,26.2,00.0,0650.2,34.4
2016-03-15T00:44:00Z,0000380,01000600,0006.44,0004.73,0003.19,0001.20,0000.06,0000.16,0000.13,-000.09,0000.06,26.2,00.0,0650.2,34.4
2016-03-15T00:45:00Z,0000380,01000600,0005.35,0005.56,0003.36,0000.67,0000.61,0000.18,-000.10,0000.13,0000.14,26.2,00.0,0650.2,34.4
2016-03-15T00:46:00Z,0000380,01000600,0006.24,0005.10,0003.17,0000.68,0000.52,0000.26,0000.51,0000.48,0000.05,26.2,00.0,0650.3,34.4
2016-03-15T00:47:00Z,0000380,01000600,0005.27,0004.77,0003.44,0000.80,0000.39,0000.67,-000.09,-000.31,0000.17,26.2,00.0,0650.3,34.4
2016-03-15T00:48:00Z,0000380,01000600,0006.38,0004.97,0002.84,0000.75,0000.79,0000.63,0000.08,0000.24,0000.23,26.2,00.0,0650.3,34.4
2016-03-15T00:49:00Z,0000380,01000600,0006.02,0004.96,0002.89,0000.34,0000.65,0000.23,0000.00,-000.04,-000.15,26.2,00.0,0650.3,34.4
2016-03-15T00:50:00Z,0000380,01000600,0006.42,0005.21,0003.06,0000.55,0000.18,0000.28,0000.26,0000.00,0000.23,26.1,00.0,0650.3,34.4
2016-03-15T00:51:00Z,0000380,01000600,0006.64,0005.55,0003.59,0000.68,0000.29,0000.23,0000.05,0000.18,0000.25,26.1,00.0,0650.2,34.4
2016-03-15T00:52:00Z,0000380,01000600,0007.16,0004.70,0003.77,0000.67,0000.74,0000.57,0000.17,0000.17,-000.25,26.1,00.0,0650.2,34.4
2016-03-15T00:53:00Z,0000380,01000600,0006.80,0004.83,0003.03,0000.60,0000.52,0000.24,0000.14,-000.05,0000.08,26.1,00.0,0650.2,34.4
2016-03-15T00:54:00Z,0000380,01000600,0006.44,0004.73,0003.61,0001.01,0000.65,0000.47,-000.09,0000.15,0000.33,26.0,00.0,0650.2,34.4
2016-03-15T00:55:00Z,0000380,01000600,0007.16,0005.47,0003.59,0001.15,0000.58,0000.70,0000.05,0000.10,-000.22,26.0,00.0,0650.2,34.4
2016-03-15T00:56:00Z,0000380,01000600,0006.00,0005.50,0003.39,0000.39,0000.32,0000.44,0000.26,-000.06,0000.12,26.0,00.0,0650.2,34.4
2016-03-15T00:57:00Z,0000380,41000600,,,,,,,,,,,,0650.1,34.4
2016-03-15T00:58:00Z,0000380,61000600,,,,,,,,,,25.8,00.0,0649.4,34.4
2016-03-15T00:59:00Z,0000380,21000600,,,,,,,,,,25.8,00.0,0649.4,34.4
2016-03-15T01:00:00Z,0000380,21000600,,,,,,,,,,25.8,00.0,0649.4,34.4
2016-03-15T01:01:00Z,0000380,21000600,,,,,,,,,,25.8,00.0,0649.4,34.4
2016-03-15T01:02:00Z,0000380,21000600,,,,,,,,,,25.8,00.0,0649.5,34.4
2016-03-15T01:03:00Z,0000380,61000600,,,,,,,,,,25.9,00.0,0649.5,34.4
2016-03-15T01:04:00Z,0000380,41000600,0006.05,0005.78,0003.66,0000.42,0000.65,0000.50,0000.19,-000.02,0000.01,26.0,00.0,0650.2,34.4
2016-03-15T01:05:00Z,0000380,01000600,0006.10,0005.11,0003.56,0001.07,0000.52,0000.31,-000.16,0000.22,0000.05,25.9,00.0,0650.2,34.4
2016-03-15T01:06:00Z,0000380,01000600,0005.94,0004.82,0003.37,0000.05,0000.81,0000.18,0000.11,0000.08,-000.18,25.9,00.0,0650.3,34.4
2016-03-15T01:07:00Z,0000380,01000600,0005.53,0005.19,0003.16,0000.58,0000.44,0000.19,0000.27,0000.22,0000.34,25.9,00.0,0650.3,34.4
2016-03-15T01:08:00Z,0000380,01000600,0006.18,0005.63,0004.25,0000.73,0000.15,0000.42,-000.06,0000.15,0000.13,25.9,00.0,0650.3,34.4
2016-03-15T01:09:00Z,0000380,01000600,0006.75,0004.78,0003.27,0000.41,0000.68,0000.60,0000.07,-000.11,-000.01,25.9,00.0,0650.3,34.4
2016-03-15T01:10:00Z,0000380,01000600,0006.29,0004.38,0003.47,0000.94,0000.31,0000.21,0000.37,-000.02,0000.13,25.9,00.0,0650.3,34.4
2016-03-15T01:11:00Z,0000380,01000600,0006.71,0005.45,0003.87,0000.92,0000.39,0000.55,-000.07,0000.09,0000.02,25.8,00.0,0650.3,34.4
2016-03-15T01:12:00Z,0000380,01000600,0006.02,0004.35,0003.94,0000.92,0000.45,0000.21,0000.08,0000.27,0000.23,25.8,00.0,0650.3,34.4
2016-03-15T01:13:00Z,0000380,01000600,0004.77,0004.75,0003.57,0000.31,0000.52,0000.49,0000.28,0000.04,0000.20,25.8,00.0,0650.3,34.4
2016-03-15T01:14:00Z,0000380,01000600,0006.21,0004.95,0003.52,0001.04,0000.60,0000.18,-000.17,0000.08,-000.23,25.8,00.0,0650.3,34.4
2016-03-15T01:15:00Z,0000380,01000600,0006.02,0004.79,0004.17,0000.66,0000.79,0000.26,0000.49,0000.12,0000.13,25.8,00.0,0650.3,34.4
2016-03-15T01:16:00Z,0000380,01000600,0006.04,0005.46,0004.05,0000.83,0000.61,0000.73,-000.20,0000.04,0000.03,25.8,00.0,0650.4,34.4
2016-03-15T01:17:00Z,0000380,01000600,0007.97,0005.11,0003.69,0000.63,0000.56,0000.44,0000.37,-000.02,0000.07,25.7,00.0,0650.4,34.4
2016-03-15T01:18:00Z,0000380,01000600,0006.64,0005.80,0004.30,0000.91,0000.34,0000.80,-000.03,0000.33,0000.33,25.7,00.0,0650.4,34.4
2016-03-15T01:19:00Z,0000380,01000600,0005.51,0004.65,0003.81,0000.26,0000.50,0000.21,0000.17,0000.09,-000.01,25.7,00.0,0650.4,34.4
2016-03-15T01:20:00Z,0000380,01000600,0005.48,0005.62,0003.60,0000.88,0000.32,0000.19,0000.10,0000.01,0000.07,25.7,00.0,0650.4,34.4
2016-03-15T01:21:00Z,0000380,01000600,0004.94,0005.12,0003.88,0000.84,0000.52,0000.44,0000.07,-000.00,0000.14,25.7,00.0,0650.4,34.4
2016-03-15T01:22:00Z,0000380,01000600,0005.88,0005.02,0003.68,0000.73,0000.53,0000.44,0000.17,0000.21,0000.00,25.7,00.0,0650.4,34.4
2016-03-15T01:23:00Z,0000380,01000600,0005.72,0005.34,0003.82,0000.11,0000.65,0000.29,0000.05,0000.22,-000.14,25.6,00.0,0650.4,34.4
2016-03-15T01:24:00Z,0000380,01000600,0007.05,0005.05,0003.92,0000.97,0000.35,0000.42,0000.05,0000.06,0000.63,25.6,00.0,0650.4,34.4
2016-03-15T01:25:00Z,0000380,01000600,0005.95,0005.04,0004.14,0000.37,0000.74,0000.31,0000.07,-000.08,-000.56,25.5,00.0,0650.5,34.4
2016-03-15T01:26:00Z,0000380,01000600,0006.64,0005.53,0004.04,0001.00,0000.79,0000.58,0000.38,0000.12,0000.33,25.5,00.0,0650.5,34.4
2016-03-15T01:27:00Z,0000380,01000600,0006.27,0005.61,0004.24,0001.23,0000.23,0000.54,-000.14,0000.14,0000.05,25.5,00.0,0650.5,34.4
2016-03-15T01:28:00Z,0000380,01000600,0005.47,0005.69,0004.13,0000.75,0000.00,0000.86,-000.05,-000.02,-000.12,25.5,00.0,0650.5,34.4
2016-03-15T01:29:00Z,0000380,01000600,0006.70,0005.48,0003.80,0000.68,0000.65,0000.62,0000.28,0000.07,0000.16,25.5,00.0,0650.5,34.4
2016-03-15T01:30:00Z,0000380,01000600,0006.59,0005.95,0003.78,0000.53,0000.40,0000.52,0000.11,0000.12,0000.16,25.5,00.0,0650.5,34.3
2016-03-15T01:31:00Z,0000380,01000600,0006.08,0005.57,0004.01,0001.18,0000.52,0000.44,0000.04,0000.02,-000.15,25.5,00.0,0650.5,34.3
2016-03-15T01:32:00Z,0000380,01000600,0005.88,0004.78,0003.92,0000.71,-000.16,0000.42,-000.05,0000.25,0000.45,25.5,00.0,0650.4,34.3
2016-03-15T01:33:00Z,0000380,01000600,0006.55,0005.59,0003.63,0000.10,0000.63,0000.47,0000.19,-000.06,0000.03,25.5,00.0,0650.4,34.3
2016-03-15T01:34:00Z,0000380,01000600,0004.59,0005.15,0003.21,0000.84,0000.11,-000.05,0000.17,0000.25,-000.34,25.4,00.0,0650.4,34.3
2016-03-15T01:35:00Z,0000380,01000600,0005.50,0004.80,0003.55,0000.96,0000.53,0000.36,0000.24,-000.09,-000.11,25.4,00.0,0650.4,34.3
2016-03-15T01:36:00Z,0000380,01000600,0004.15,0004.64,0003.12,0000.26,0000.55,0000.21,-000.19,0000.16,0000.13,25.3,00.0,0650.3,34.3
2016-03-15T01:37:00Z,0000380,01000600,0005.93,0005.05,0003.16,0000.71,0000.23,0000.36,0000.50,0000.22,0000.74,25.3,00.0,0650.4,34.3
2016-03-15T01:38:00Z,0000380,01000600,0005.11,0004.35,0003.23,0001.31,0000.76,0000.31,-000.07,0000.10,-000.07,25.3,00.0,0650.4,34.3
2016-03-15T01:39:00Z,0000380,01000600,0006.00,0005.09,0003.31,0001.31,0000.10,-000.05,-000.09,0000.04,-000.00,25.3,00.0,0650.4,34.3
2016-03-15T01:40:00Z,0000380,01000600,0006.10,0005.08,0003.29,0000.95,0000.50,0000.32,0000.21,-000.26,-000.16,25.3,00.0,0650.5,34.3
2016-03-15T01:41:00Z,0000380,01000600,0006.28,0005.56,0003.53,0001.07,0000.42,0000.11,-000.17,-000.01,0000.09,25.3,00.0,0650.5,34.3
2016-03-15T01:42:00Z,0000380,01000600,0006.23,0004.55,0003.21,0001.13,0000.19,0000.53,0000.36,0000.09,-000.05,25.3,00.0,0650.5,34.3
2016-03-15T01:43:00Z,0000380,01000600,0005.39,0005.44,0003.54,0000.87,0000.66,0000.34,0000.21,0000.32,0000.37,25.3,00.0,0650.5,34.3
2016-03-15T01:44:00Z,0000380,01000600,0004.86,0004.33,0003.55,0000.92,0000.16,0000.57,-000.18,0000.03,-000.26,25.3,00.0,0650.6,34.3
2016-03-15T01:45:00Z,0000380,01000600,0005.96,0004.81,0003.00,0001.00,0000.58,0000.15,0000.43,0000.24,0000.31,25.3,00.0,0650.6,34.3
2016-03-15T01:46:00Z,0000380,01000600,0004.74,0005.37,0003.32,0000.76,0000.61,0000.26,0000.03,-000.04,0000.05,25.3,00.0,0650.6,34.3
2016-03-15T01:47:00Z,0000380,01000600,0005.92,0004.21,0003.68,0000.95,0000.39,0000.24,0000.18,0000.27,0000.36,25.3,00.0,0650.6,34.3
2016-03-15T01:48:00Z,0000380,01000600,0006.35,0004.78,0003.60,0000.65,0000.58,0000.16,0000.23,0000.13,-000.13,25.3,00.0,0650.7,34.3
2016-03-15T01:49:00Z,0000380,01000600,0005.81,0005.94,0003.28,0001.10,0000.60,0000.16,0000.02,0000.15,0000.27,25.2,00.0,0650.7,34.3
2016-03-15T01:50:00Z,0000380,01000600,0006.01,0005.25,0003.50,0001.10,0000.52,0000.06,0000.18,0000.05,0000.19,25.2,00.0,0650.7,34.3
2016-03-15T01:51:00Z,0000380,01000600,0005.79,0004.72,0003.40,0000.65,0000.37,0000.49,0000.16,-000.12,-000.19,25.2,00.0,0650.6,34.3
2016-03-15T01:52:00Z,0000380,01000600,0006.48,0004.50,0003.49,0000.47,0000.82,0000.28,-000.06,0000.32,0000.23,25.2,00.0,0650.6,34.3
2016-03-15T01:53:00Z,0000380,01000600,0006.10,0004.80,0003.02,0000.86,0000.19,0000.29,0000.05,0000.09,-000.21,25.2,00.0,0650.6,34.3
2016-03-15T01:54:00Z,0000380,01000600,0005.63,0003.86,0003.07,0000.40,0000.45,0000.23,0000.19,-000.10,0000.39,25.1,00.0,0650.6,34.3
2016-03-15T01:55:00Z,0000380,01000600,0005.61,0005.47,0003.21,0000.58,0000.61,0000.23,0000.13,-000.19,-000.39,25.1,00.0,0650.6,34.3
2016-03-15T01:56:00Z,0000380,01000600,0004.49,0004.78,0003.27,0001.10,0001.22,0000.29,-000.34,0000.19,0000.07,25.1,00.0,0650.6,34.3
2016-03-15T01:57:00Z,0000380,41000600,,,,,,,,,,,,0650.6,34.3
2016-03-15T01:58:00Z,0000380,61000600,,,,,,,,,,25.0,00.0,0649.8,34.3
2016-03-15T01:59:00Z,0000380,21000600,,,,,,,,,,25.0,00.0,0649.8,34.3
2016-03-15T02:00:00Z,0000380,21000600,,,,,,,,,,25.0,00.0,0649.9,34.4
2016-03-15T02:01:00Z,0000380,21000600,,,,,,,,,,25.0,00.0,0649.9,34.4
2016-03-15T02:02:00Z,0000380,21000600,,,,,,,,,,25.0,00.0,0649.9,34.4
2016-03-15T02:03:00Z,0000380,61000600,,,,,,,,,,25.1,00.0,0649.9,34.4
2016-03-15T02:04:00Z,0000380,41000600,0005.89,0004.33,0003.56,0000.66,0000.66,0000.49,-000.07,0000.26,-000.04,25.2,00.0,0650.6,34.4
2016-03-15T02:05:00Z,0000380,01000600,0005.77,0004.62,0003.63,0000.61,0000.50,0000.55,0000.13,-000.04,0000.28,25.2,00.0,0650.7,34.4
2016-03-15T02:06:00Z,0000380,01000600,0006.43,0004.25,0003.03,0000.55,-000.06,-000.10,0000.04,0000.19,-000.30,25.2,00.0,0650.8,34.4
2016-03-15T02:07:00Z,0000380,01000600,0005.07,0003.96,0002.93,0001.36,0000.34,0000.23,0000.31,0000.22,0000.38,25.2,00.0,0650.8,34.4
2016-03-15T02:08:00Z,0000380,01000600,0004.58,0003.83,0003.29,0001.05,0000.53,0000.50,0000.23,0000.08,0000.01,25.2,00.0,0650.8,34.4
2016-03-15T02:09:00Z,0000380,01000600,0005.72,0004.77,0002.95,0001.00,-000.02,0000.05,-000.19,0000.04,0000.24,25.2,00.0,0650.8,34.4
2016-03-15T02:10:00Z,0000380,01000600,0004.57,0003.66,0003.00,0000.71,0000.66,0000.36,-000.01,-000.00,-000.12,25.1,00.0,0650.8,34.4
2016-03-15T02:11:00Z,0000380,01000600,0004.66,0004.38,0003.08,0001.28,0000.39,0000.53,0000.28,0000.16,0000.09,25.2,00.0,0650.8,34.4
2016-03-15T02:12:00Z,0000380,01000600,0005.66,0003.82,0002.90,0000.24,0000.21,0000.08,-000.00,-000.03,-000.18,25.2,00.0,0650.9,34.4
2016-03-15T02:13:00Z,0000380,01000600,0004.26,0004.20,0002.76,0001.18,0000.64,0000.03,0000.02,0000.26,0000.24,25.2,00.0,0650.9,34.4
2016-03-15T02:14:00Z,0000380,01000600,0004.41,0003.59,0003.25,0000.13,-000.13,0000.24,0000.42,0000.23,0000.29,25.2,00.0,0650.9,34.4
2016-03-15T02:15:00Z,0000380,01000600,0006.05,0003.92,0003.14,0000.84,-000.03,0000.44,-000.05,0000.15,0000.08,25.2,00.0,0650.9,34.3
2016-03-15T02:16:00Z,0000380,01000600,0004.19,0004.99,0003.38,0001.07,0000.71,0000.13,0000.32,0000.12,0000.19,25.2,00.0,0650.9,34.3
2016-03-15T02:17:00Z,0000380,01000600,0005.00,0004.80,0002.65,0000.34,0000.16,0000.24,-000.02,0000.20,0000.13,25.1,00.0,0650.9,34.3
2016-03-15T02:18:00Z,0000380,01000600,0004.04,0003.18,0002.99,0001.03,0000.06,0000.26,0000.08,0000.02,0000.00,25.1,00.0,0650.9,34.3
2016-03-15T02:19:00Z,0000380,01000600,0005.42,0003.34,0002.48,0000.94,0000.16,0000.21,0000.13,0000.02,-000.06,25.1,00.0,0650.9,34.3
2016-03-15T02:20:00Z,0000380,01000600,0005.42,0003.94,0002.80,0000.78,0001.00,0000.06,0000.10,0000.34,0000.63,25.0,00.0,0650.8,34.3
2016-03-15T02:21:00Z,0000380,01000600,0004.83,0002.99,0002.79,0001.10,-000.27,0000.49,0000.12,0000.01,-000.42,25.0,00.0,0650.8,34.3
2016-03-15T02:22:00Z,0000380,01000600,0004.29,0003.32,0002.41,0001.05,0000.50,0000.37,0000.10,0000.03,0000.08,25.0,00.0,0650.8,34.3
2016-03-15T02:23:00Z,0000380,01000600,0004.46,0004.63,0002.45,0000.86,0000.06,-000.13,0000.90,0000.52,0000.56,25.0,00.0,0650.8,34.3
2016-03-15T02:24:00Z,0000380,01000600,0004.31,0004.03,0002.78,-000.13,-000.10,0000.47,-000.24,0000.04,-000.15,25.0,00.0,0650.9,34.3
2016-03-15T02:25:00Z,0000380,01000600,0005.69,0003.84,0002.92,0000.78,0000.40,0000.19,0000.03,-000.33,-000.07,25.0,00.0,0650.9,34.3
2016-03-15T02:26:00Z,0000380,01000600,0005.37,0004.81,0002.92,0000.87,0000.61,0000.02,0000.02,0000.01,-000.01,25.0,00.0,0650.9,34.3
2016-03-15T02:27:00Z,0000380,01000600,0004.48,0003.84,0002.52,0001.00,0000.40,0000.27,0000.10,0000.30,0000.17,25.0,00.0,0650.9,34.3
2016-03-15T02:28:00Z,0000380,01000600,0003.54,0003.57,0002.60,0000.34,0000.53,0000.08,0000.10,0000.06,0000.08,25.0,00.0,0650.9,34.3
2016-03-15T02:29:00Z,0000380,01000600,0004.40,0003.91,0002.56,0000.37,-000.14,0000.13,0000.07,-000.01,-000.02,25.0,00.0,0650.9,34.3
2016-03-15T02:30:00Z,0000380,01000600,0005.67,0003.76,0002.99,0000.73,0000.26,-000.18,0000.12,0000.53,0000.17,25.0,00.0,0650.9,34.3
2016-03-15T02:31:00Z,0000380,01000600,0005.46,0003.47,0002.26,0001.23,0000.35,0000.49,0000.28,-000.09,0000.31,25.0,00.0,0650.9,34.3
2016-03-15T02:32:00Z,0000380,01000600,0005.18,0003.15,0003.33,0000.58,-000.29,0000.42,-000.01,0000.11,0000.22,25.0,00.0,0650.9,34.3
2016-03-15T02:33:00Z,0000380,01000600,0004.85,0004.18,0002.41,0000.68,0000.18,0000.55,0000.23,-000.05,0000.10,25.0,00.0,0650.9,34.3
2016-03-15T02:34:00Z,0000380,01000600,0003.66,0004.13,0002.09,0000.40,0000.14,-000.06,0000.14,0000.48,0000.20,25.0,00.0,0650.9,34.3
2016-03-15T02:35:00Z,0000380,01000600,0005.57,0004.04,0002.58,0000.58,0000.43,0000.10,0000.10,-000.12,0000.04,25.0,00.0,0650.8,34.3
2016-03-15T02:36:00Z,0000380,01000600,0003.61,0003.85,0002.69,0000.74,0000.34,0000.61,0000.01,0000.11,-000.32,25.0,00.0,0650.9,34.3
2016-03-15T02:37:00Z,0000380,01000600,0005.32,0004.29,0002.78,0000.06,0000.82,0000.55,0000.59,0000.40,0000.75,24.9,00.0,0650.9,34.3
2016-03-15T02:38:00Z,0000380,01000600,0004.28,0003.20,0002.64,0000.86,0000.79,-000.08,-000.31,-000.11,-000.30,24.9,00.0,0650.9,34.3
2016-03-15T02:39:00Z,0000380,01000600,0004.18,0004.00,0003.20,0000.16,0000.16,0000.10,0000.00,0000.02,-000.34,24.8,00.0,0650.9,34.3
2016-03-15T02:40:00Z,0000380,01000600,0004.90,0004.06,0002.30,0000.63,0000.61,0000.24,0000.21,-000.08,0000.56,24.8,00.0,0650.9,34.3
2016-03-15T02:41:00Z,0000380,01000600,0004.84,0003.73,0002.99,0000.50,0000.39,0000.21,0000.11,0000.43,0000.09,24.8,00.0,0650.9,34.3
2016-03-15T02:42:00Z,0000380,01000600,0004.96,0003.48,0002.62,0000.40,0000.51,0000.15,0000.12,0000.03,-000.08,24.8,00.0,0650.8,34.3
2016-03-15T02:43:00Z,0000380,01000600,0005.41,0002.99,0002.40,0000.58,0000.45,0000.42,0000.18,0000.07,0000.37,24.8,00.0,0650.8,34.3
2016-03-15T02:44:00Z,0000380,01000600,0004.51,0003.34,0002.46,0000.27,0000.29,0000.13,0000.24,0000.47,-000.00,24.8,00.0,0650.8,34.3
2016-03-15T02:45:00Z,0000380,01000600,0003.84,0003.88,0002.46,0000.36,0000.23,0000.16,0000.14,-000.15,-000.03,24.8,00.0,0650.8,34.3
2016-03-15T02:46:00Z,0000380,01000600,0004.80,0003.24,0002.75,0000.29,0000.27,0000.24,0000.03,0000.10,0000.03,24.8,00.0,0650.8,34.3
2016-03-15T02:47:00Z,0000380,01000600,0004.46,0003.90,0002.71,-000.29,0000.29,0000.26,0000.23,-000.07,0000.35,24.8,00.0,0650.8,34.3
2016-03-15T02:48:00Z,0000380,01000600,0004.56,0003.22,0002.30,0000.42,0000.23,0000.08,0000.05,0000.13,-000.13,24.7,00.0,0650.8,34.3
2016-03-15T02:49:00Z,0000380,01000600,0004.07,0002.85,0001.86,0000.42,-000.08,0000.03,-000.06,0000.10,0000.03,24.7,00.0,0650.7,34.3
2016-03-15T02:50:00Z,0000380,01000600,0004.40,0003.20,0001.77,0001.05,0000.39,0000.06,0000.13,0000.02,0000.11,24.7,00.0,0650.7,34.3
2016-03-15T02:51:00Z,0000380,01000600,0003.88,0003.10,0002.49,0000.13,0000.34,0000.15,0000.47,0000.54,0000.57,24.7,00.0,0650.7,34.3
2016-03-15T02:52:00Z,0000380,01000600,0004.02,0003.15,0002.77,0000.47,0000.35,0000.21,-000.12,-000.13,-000.01,24.6,00.0,0650.8,34.3
2016-03-15T02:53:00Z,0000380,01000600,0004.47,0003.88,0002.46,0001.10,0000.58,-000.31,-000.12,0000.20,-000.24,24.6,00.0,0650.9,34.3
2016-03-15T02:54:00Z,0000380,01000600,0005.95,0003.41,0002.46,0000.06,0000.13,0000.19,0000.26,-000.06,0000.30,24.5,00.0,0650.9,34.3
2016-03-15T02:55:00Z,0000380,01000600,0004.63,0003.45,0002.76,0000.21,0000.47,0000.32,-000.07,0000.10,0000.09,24.5,00.0,0650.9,34.3
2016-03-15T02:56:00Z,0000380,01000600,0005.06,0003.50,0003.27,0000.74,-000.10,-000.02,-000.02,0000.13,-000.37,24.5,00.0,0650.9,34.3
2016-03-15T02:57:00Z,0000380,41000600,,,,,,,,,,,,0650.9,34.3
2016-03-15T02:58:00Z,0000380,61000600,,,,,,,,,,24.5,00.0,0650.2,34.3
2016-03-15T02:59:00Z,0000380,21000600,,,,,,,,,,24.5,00.0,0650.0,34.3
2016-03-15T03:00:00Z,0000380,21000600,,,,,,,,,,24.5,00.0,0650.0,34.3
2016-03-15T03:01:00Z,0000380,21000600,,,,,,,,,,24.5,00.0,0650.0,34.3
2016-03-15T03:02:00Z,0000380,21000600,,,,,,,,,,24.5,00.0,0650.0,34.3
2016-03-15T03:03:00Z,0000380,61000600,,,,,,,,,,24.5,00.0,0650.0,34.3
2016-03-15T03:04:00Z,0000380,41000600,0003.50,0003.23,0001.65,-000.03,0000.18,0000.34,0000.33,0000.19,0000.21,24.5,00.0,0650.7,34.3
2016-03-15T03:05:00Z,0000380,01000600,0004.11,0002.95,0001.82,0000.37,0000.21,0000.39,0000.25,0000.24,0000.55,24.5,00.0,0650.8,34.3
2016-03-15T03:06:00Z,0000380,01000600,0003.95,0002.77,0002.50,0000.56,0000.29,0000.81,-000.26,0000.04,-000.36,24.5,00.0,0650.8,34.3
2016-03-15T03:07:00Z,0000380,01000600,0004.35,0003.32,0002.31,0000.40,0000.66,0000.27,0000.34,0000.14,0000.23,24.5,00.0,0650.8,34.3
2016-03-15T03:08:00Z,0000380,01000600,0004.76,0002.86,0002.07,0000.11,0000.66,0000.37,0000.27,0000.19,0000.01,24.5,00.0,0650.8,34.3
2016-03-15T03:09:00Z,0000380,01000600,0003.35,0003.54,0002.03,0000.34,0000.74,0000.45,0000.04,-000.14,0000.26,24.5,00.0,0650.8,34.3
2016-03-15T03:10:00Z,0000380,01000600,0004.10,0003.36,0002.35,0000.31,0000.35,0000.19,-000.20,-000.05,-000.44,24.5,00.0,0650.8,34.3
2016-03-15T03:11:00Z,0000380,01000600,0005.29,0004.17,0002.14,0000.32,0000.21,0000.37,0000.14,0000.03,0000.12,24.5,00.0,0650.8,34.3
2016-03-15T03:12:00Z,0000380,01000600,0005.21,0004.38,0002.40,0000.84,0000.69,0000.58,0000.29,0000.26,0000.14,24.5,00.0,0650.9,34.3